QPF
0.04 0.03 0.03 0.03 0.04 0.04 0.04 0.04 0.04 0.03 0.02 0.03 0.02 0.02 0.01 0.01 0.01 0.01 0.02 0.03 0.04 0.05 0.05 0.05 0.05 0.04 0.05 0.06 0.07 0.07 0.09 0.09 0.10 0.11 0.12 0.12 0.12 0.12
0.04 0.04 0.03 0.02 0.03 0.03 0.03 0.03 0.03 0.03 0.03 0.02 0.02 0.02 0.02 0.02 0.02 0.02 0.02 0.03 0.03 0.04 0.05 0.05 0.05 0.05 0.05 0.06 0.05 0.05 0.05 0.06 0.06 0.07 0.08 0.09 0.09 0.09
0.04 0.03 0.02 0.02 0.03 0.03 0.03 0.02 0.03 0.03 0.03 0.02 0.03 0.03 0.02 0.03 0.03 0.02 0.03 0.03 0.03 0.05 0.05 0.06 0.06 0.05 0.05 0.06 0.05 0.04 0.04 0.05 0.04 0.04 0.05 0.06 0.07 0.07
0.04 0.04 0.03 0.02 0.02 0.03 0.03 0.03 0.03 0.03 0.03 0.03 0.04 0.05 0.04 0.04 0.03 0.04 0.05 0.04 0.03 0.04 0.05 0.05 0.06 0.05 0.05 0.05 0.04 0.03 0.03 0.04 0.04 0.03 0.03 0.04 0.05 0.07
0.05 0.04 0.03 0.02 0.02 0.02 0.02 0.02 0.02 0.02 0.02 0.02 0.03 0.04 0.03 0.03 0.04 0.06 0.09 0.05 0.03 0.03 0.05 0.06 0.07 0.06 0.05 0.04 0.04 0.03 0.03 0.03 0.03 0.03 0.02 0.02 0.04 0.05
0.03 0.03 0.03 0.03 0.02 0.02 0.02 0.02 0.02 0.02 0.02 0.02 0.02 0.02 0.03 0.03 0.05 0.09 0.08 0.05 0.03 0.03 0.05 0.08 0.07 0.07 0.05 0.04 0.04 0.03 0.02 0.02 0.03 0.03 0.03 0.03 0.03 0.03
0.04 0.03 0.03 0.02 0.02 0.02 0.01 0.01 0.02 0.02 0.02 0.01 0.01 0.01 0.02 0.03 0.04 0.07 0.08 0.06 0.04 0.04 0.05 0.08 0.08 0.07 0.05 0.04 0.04 0.03 0.02 0.01 0.01 0.02 0.03 0.04 0.04 0.04
0.04 0.04 0.04 0.03 0.02 0.02 0.02 0.03 0.03 0.02 0.02 0.02 0.02 0.02 0.03 0.03 0.04 0.04 0.07 0.08 0.06 0.04 0.05 0.07 0.07 0.06 0.05 0.04 0.03 0.03 0.02 0.02 0.02 0.02 0.02 0.04 0.04 0.05
0.04 0.04 0.04 0.04 0.03 0.03 0.03 0.03 0.03 0.03 0.03 0.03 0.03 0.03 0.04 0.04 0.04 0.04 0.05 0.06 0.06 0.04 0.04 0.06 0.05 0.04 0.03 0.02 0.02 0.02 0.01 0.01 0.02 0.02 0.02 0.03 0.04 0.04
0.04 0.05 0.05 0.05 0.05 0.05 0.04 0.03 0.03 0.03 0.03 0.02 0.01 0.02 0.03 0.03 0.02 0.03 0.04 0.05 0.05 0.06 0.04 0.05 0.04 0.03 0.03 0.02 0.02 0.01 0.01 0.01 0.01 0.01 0.01 0.02 0.03 0.04
0.03 0.04 0.06 0.07 0.06 0.06 0.04 0.03 0.02 0.02 0.02 0.02 0.02 0.01 0.02 0.03 0.03 0.03 0.03 0.04 0.05 0.07 0.06 0.06 0.04 0.04 0.03 0.02 0.01 0.01 0.01 0.01 0.01 0.01 0.01 0.01 0.02 0.03
0.03 0.03 0.05 0.06 0.06 0.06 0.04 0.03 0.02 0.02 0.02 0.01 0.01 0.01 0.02 0.03 0.03 0.03 0.03 0.04 0.05 0.06 0.06 0.07 0.06 0.06 0.04 0.02 0.01 0.01 0.01 0.01 0.01 0.01 0.01 0.01 0.02 0.02
0.03 0.04 0.05 0.07 0.06 0.05 0.04 0.03 0.02 0.01 0.01 0.01 0.01 0.01 0.01 0.02 0.03 0.03 0.04 0.04 0.05 0.06 0.06 0.08 0.08 0.07 0.07 0.02 0.01 0.01 0.01 0.01 0.01 0.00 0.01 0.02 0.02 0.02
0.03 0.04 0.04 0.06 0.05 0.05 0.03 0.02 0.02 0.02 0.01 0.02 0.02 0.03 0.02 0.02 0.02 0.03 0.04 0.05 0.06 0.07 0.08 0.08 0.07 0.06 0.07 0.04 0.02 0.02 0.02 0.02 0.01 0.01 0.01 0.01 0.01 0.02
0.04 0.04 0.05 0.06 0.05 0.04 0.04 0.03 0.03 0.02 0.01 0.02 0.02 0.03 0.04 0.03 0.02 0.03 0.03 0.04 0.05 0.06 0.06 0.06 0.07 0.07 0.08 0.06 0.04 0.04 0.03 0.02 0.02 0.02 0.02 0.01 0.01 0.01
0.04 0.04 0.06 0.06 0.05 0.05 0.05 0.05 0.04 0.02 0.02 0.02 0.03 0.03 0.03 0.03 0.03 0.03 0.04 0.04 0.04 0.04 0.04 0.05 0.06 0.06 0.06 0.05 0.05 0.04 0.05 0.04 0.03 0.04 0.04 0.02 0.01 0.01
0.04 0.04 0.05 0.05 0.04 0.04 0.03 0.03 0.04 0.03 0.03 0.03 0.03 0.04 0.03 0.04 0.04 0.04 0.05 0.05 0.04 0.04 0.05 0.05 0.06 0.06 0.06 0.04 0.03 0.03 0.03 0.04 0.04 0.04 0.06 0.05 0.03 0.03
0.03 0.03 0.03 0.04 0.04 0.04 0.04 0.03 0.03 0.03 0.03 0.03 0.04 0.04 0.04 0.05 0.05 0.05 0.06 0.07 0.07 0.07 0.08 0.07 0.07 0.06 0.06 0.05 0.03 0.03 0.03 0.03 0.03 0.04 0.06 0.07 0.05 0.04
0.02 0.02 0.03 0.03 0.02 0.02 0.02 0.02 0.03 0.03 0.03 0.04 0.04 0.05 0.06 0.06 0.07 0.06 0.05 0.05 0.06 0.07 0.08 0.06 0.06 0.06 0.06 0.06 0.04 0.04 0.04 0.05 0.04 0.05 0.06 0.05 0.05 0.04
0.02 0.03 0.03 0.02 0.02 0.01 0.01 0.01 0.01 0.01 0.02 0.04 0.05 0.06 0.06 0.06 0.05 0.04 0.04 0.04 0.04 0.06 0.06 0.05 0.05 0.05 0.05 0.05 0.06 0.06 0.05 0.05 0.06 0.06 0.05 0.04 0.05 0.05
0.03 0.03 0.02 0.01 0.02 0.01 0.01 0.01 0.01 0.02 0.03 0.04 0.04 0.05 0.06 0.05 0.04 0.03 0.03 0.03 0.03 0.04 0.05 0.04 0.03 0.03 0.05 0.05 0.05 0.06 0.05 0.05 0.06 0.05 0.04 0.04 0.05 0.06
0.02 0.02 0.01 0.02 0.02 0.02 0.02 0.02 0.02 0.02 0.02 0.02 0.02 0.02 0.03 0.03 0.03 0.03 0.03 0.02 0.02 0.02 0.02 0.02 0.02 0.02 0.03 0.03 0.04 0.04 0.04 0.04 0.04 0.04 0.03 0.03 0.04 0.05
0.01 0.01 0.01 0.01 0.02 0.02 0.02 0.02 0.02 0.02 0.01 0.01 0.01 0.01 0.02 0.02 0.02 0.03 0.03 0.03 0.02 0.02 0.02 0.02 0.02 0.02 0.02 0.02 0.03 0.02 0.03 0.03 0.04 0.04 0.02 0.02 0.02 0.02
MSLP
1013.04 1013.19 1013.32 1013.42 1013.44 1013.39 1013.26 1013.04 1012.76 1012.43 1012.06 1011.68 1011.29 1010.91 1010.54 1010.19 1009.88 1009.60 1009.37 1009.20 1009.08 1009.03 1009.02 1009.04 1009.06 1009.07 1009.04 1008.97 1008.85 1008.70 1008.52 1008.34 1008.15 1007.98 1007.83 1007.68 1007.54 1007.39
1012.66 1012.72 1012.75 1012.74 1012.70 1012.59 1012.42 1012.20 1011.94 1011.65 1011.33 1010.99 1010.64 1010.28 1009.92 1009.56 1009.22 1008.92 1008.66 1008.46 1008.32 1008.24 1008.22 1008.22 1008.22 1008.21 1008.18 1008.10 1008.00 1007.87 1007.73 1007.60 1007.48 1007.38 1007.28 1007.18 1007.04 1006.87
1012.14 1012.10 1012.03 1011.94 1011.80 1011.65 1011.46 1011.24 1011.02 1010.77 1010.50 1010.22 1009.91 1009.58 1009.23 1008.87 1008.52 1008.19 1007.90 1007.68 1007.52 1007.42 1007.37 1007.34 1007.33 1007.30 1007.25 1007.17 1007.07 1006.96 1006.86 1006.79 1006.74 1006.72 1006.69 1006.64 1006.54 1006.38
1011.49 1011.36 1011.21 1011.04 1010.84 1010.64 1010.44 1010.24 1010.04 1009.83 1009.61 1009.38 1009.11 1008.80 1008.47 1008.11 1007.75 1007.40 1007.10 1006.86 1006.68 1006.56 1006.48 1006.44 1006.40 1006.34 1006.27 1006.17 1006.07 1005.98 1005.91 1005.89 1005.91 1005.97 1006.02 1006.05 1006.01 1005.88
1010.76 1010.56 1010.34 1010.11 1009.87 1009.64 1009.42 1009.22 1009.04 1008.87 1008.69 1008.48 1008.24 1007.95 1007.62 1007.27 1006.90 1006.55 1006.24 1005.98 1005.79 1005.66 1005.57 1005.50 1005.44 1005.35 1005.25 1005.13 1005.02 1004.92 1004.88 1004.90 1004.98 1005.10 1005.24 1005.36 1005.40 1005.34
1009.98 1009.73 1009.46 1009.19 1008.92 1008.66 1008.44 1008.24 1008.06 1007.90 1007.73 1007.54 1007.30 1007.02 1006.70 1006.34 1005.98 1005.63 1005.32 1005.06 1004.87 1004.73 1004.63 1004.55 1004.46 1004.36 1004.22 1004.08 1003.94 1003.84 1003.80 1003.84 1003.96 1004.14 1004.36 1004.56 1004.70 1004.74
1009.18 1008.90 1008.60 1008.29 1008.00 1007.73 1007.49 1007.28 1007.10 1006.93 1006.76 1006.56 1006.31 1006.03 1005.70 1005.34 1004.98 1004.64 1004.35 1004.11 1003.93 1003.80 1003.70 1003.62 1003.52 1003.38 1003.23 1003.06 1002.90 1002.78 1002.72 1002.76 1002.90 1003.12 1003.40 1003.68 1003.92 1004.08
1008.39 1008.08 1007.76 1007.44 1007.13 1006.84 1006.59 1006.36 1006.16 1005.97 1005.77 1005.54 1005.29 1004.99 1004.65 1004.30 1003.95 1003.63 1003.36 1003.14 1002.99 1002.88 1002.80 1002.71 1002.61 1002.47 1002.30 1002.10 1001.91 1001.77 1001.70 1001.72 1001.86 1002.10 1002.41 1002.75 1003.08 1003.36
1007.62 1007.31 1006.98 1006.64 1006.32 1006.02 1005.74 1005.49 1005.26 1005.03 1004.80 1004.55 1004.26 1003.94 1003.60 1003.26 1002.92 1002.63 1002.38 1002.19 1002.06 1001.98 1001.92 1001.84 1001.75 1001.61 1001.44 1001.23 1001.03 1000.86 1000.77 1000.77 1000.90 1001.13 1001.45 1001.84 1002.23 1002.60
1006.92 1006.59 1006.25 1005.91 1005.58 1005.26 1004.97 1004.69 1004.42 1004.16 1003.89 1003.60 1003.29 1002.96 1002.61 1002.26 1001.94 1001.66 1001.43 1001.27 1001.16 1001.10 1001.06 1001.01 1000.93 1000.81 1000.64 1000.45 1000.25 1000.08 999.97 999.96 1000.06 1000.27 1000.58 1000.98 1001.41 1001.84
1006.30 1005.97 1005.63 1005.28 1004.94 1004.61 1004.30 1003.99 1003.70 1003.40 1003.09 1002.77 1002.43 1002.08 1001.71 1001.36 1001.04 1000.76 1000.54 1000.38 1000.28 1000.23 1000.20 1000.17 1000.11 1000.02 999.89 999.72 999.55 999.40 999.30 999.28 999.36 999.54 999.84 1000.21 1000.65 1001.11
1005.82 1005.48 1005.14 1004.80 1004.45 1004.11 1003.78 1003.45 1003.12 1002.80 1002.46 1002.10 1001.73 1001.35 1000.96 1000.59 1000.25 999.95 999.70 999.53 999.41 999.34 999.31 999.28 999.25 999.20 999.12 999.01 998.90 998.79 998.72 998.71 998.79 998.96 999.21 999.56 999.96 1000.42
1005.53 1005.18 1004.84 1004.49 1004.14 1003.80 1003.45 1003.10 1002.75 1002.39 1002.02 1001.63 1001.22 1000.80 1000.38 999.96 999.57 999.22 998.92 998.69 998.53 998.42 998.36 998.34 998.32 998.31 998.29 998.26 998.22 998.19 998.18 998.22 998.30 998.46 998.69 999.00 999.36 999.78
1005.46 1005.11 1004.76 1004.41 1004.06 1003.70 1003.34 1002.97 1002.60 1002.21 1001.80 1001.37 1000.92 1000.44 999.96 999.48 999.01 998.58 998.20 997.89 997.64 997.47 997.36 997.32 997.31 997.34 997.38 997.43 997.49 997.55 997.63 997.73 997.86 998.03 998.24 998.51 998.82 999.20
1005.62 1005.28 1004.93 1004.57 1004.21 1003.84 1003.46 1003.07 1002.67 1002.24 1001.79 1001.31 1000.80 1000.26 999.70 999.14 998.58 998.05 997.56 997.13 996.79 996.52 996.35 996.26 996.25 996.30 996.40 996.53 996.69 996.86 997.03 997.21 997.40 997.59 997.81 998.05 998.33 998.64
1006.03 1005.68 1005.32 1004.96 1004.59 1004.20 1003.80 1003.38 1002.93 1002.46 1001.96 1001.42 1000.85 1000.24 999.60 998.94 998.28 997.63 997.02 996.47 996.01 995.64 995.39 995.24 995.21 995.26 995.40 995.60 995.84 996.10 996.37 996.63 996.88 997.12 997.35 997.58 997.83 998.11
1006.62 1006.28 1005.91 1005.54 1005.14 1004.73 1004.30 1003.84 1003.35 1002.84 1002.28 1001.68 1001.04 1000.35 999.62 998.87 998.11 997.35 996.63 995.97 995.39 994.92 994.58 994.36 994.28 994.32 994.47 994.70 995.00 995.32 995.66 995.99 996.30 996.58 996.84 997.08 997.33 997.59
1007.35 1007.00 1006.63 1006.24 1005.82 1005.38 1004.91 1004.41 1003.88 1003.30 1002.69 1002.03 1001.33 1000.57 999.78 998.95 998.11 997.26 996.45 995.69 995.01 994.45 994.01 993.72 993.57 993.57 993.69 993.92 994.23 994.58 994.95 995.31 995.66 995.98 996.26 996.53 996.78 997.05
1008.14 1007.79 1007.41 1007.00 1006.56 1006.08 1005.57 1005.03 1004.44 1003.82 1003.16 1002.44 1001.69 1000.89 1000.05 999.18 998.28 997.38 996.51 995.68 994.93 994.28 993.77 993.40 993.17 993.10 993.16 993.34 993.61 993.93 994.29 994.66 995.01 995.34 995.64 995.93 996.21 996.50
1008.92 1008.57 1008.19 1007.77 1007.30 1006.79 1006.24 1005.65 1005.02 1004.35 1003.65 1002.90 1002.12 1001.30 1000.44 999.55 998.64 997.72 996.82 995.96 995.17 994.47 993.88 993.43 993.12 992.96 992.92 993.01 993.20 993.46 993.76 994.08 994.40 994.71 995.02 995.31 995.61 995.93
1009.65 1009.32 1008.93 1008.50 1008.01 1007.47 1006.88 1006.25 1005.58 1004.88 1004.15 1003.40 1002.60 1001.78 1000.94 1000.06 999.17 998.28 997.39 996.53 995.72 994.98 994.34 993.82 993.42 993.15 993.01 992.98 993.04 993.19 993.39 993.63 993.89 994.16 994.44 994.73 995.04 995.38
1010.33 1010.01 1009.62 1009.18 1008.67 1008.10 1007.49 1006.83 1006.14 1005.42 1004.68 1003.92 1003.14 1002.35 1001.54 1000.70 999.86 999.01 998.16 997.32 996.52 995.78 995.10 994.52 994.03 993.66 993.39 993.22 993.16 993.17 993.25 993.38 993.55 993.75 993.98 994.25 994.55 994.90
1010.96 1010.65 1010.27 1009.82 1009.29 1008.71 1008.07 1007.40 1006.69 1005.96 1005.23 1004.48 1003.74 1002.98 1002.22 1001.45 1000.67 999.88 999.08 998.29 997.52 996.78 996.08 995.44 994.89 994.41 994.03 993.74 993.54 993.42 993.36 993.38 993.45 993.57 993.74 993.96 994.24 994.56
Thickness
5627 5625 5622 5620 5617 5615 5612 5608 5604 5602 5604 5607 5608 5611 5611 5611 5612 5612 5613 5614 5616 5617 5618 5619 5621 5623 5625 5627 5628 5629 5631 5632 5633 5635 5637 5639 5641 5643
5622 5619 5617 5615 5613 5611 5608 5605 5602 5599 5598 5600 5602 5604 5605 5606 5606 5606 5606 5607 5609 5610 5611 5613 5615 5617 5619 5621 5622 5623 5624 5625 5627 5628 5631 5633 5636 5638
5618 5615 5612 5610 5608 5606 5603 5600 5598 5595 5594 5596 5596 5598 5598 5598 5599 5599 5600 5600 5602 5603 5605 5606 5608 5610 5612 5614 5615 5617 5618 5618 5620 5622 5624 5627 5629 5632
5612 5609 5607 5606 5603 5601 5598 5596 5594 5592 5590 5589 5590 5590 5590 5591 5591 5592 5593 5594 5595 5597 5598 5600 5601 5603 5605 5606 5608 5610 5611 5612 5613 5615 5617 5620 5622 5625
5607 5604 5602 5600 5598 5596 5593 5591 5589 5589 5586 5584 5584 5583 5583 5584 5584 5584 5586 5587 5589 5591 5592 5593 5595 5596 5598 5600 5602 5603 5604 5606 5607 5609 5610 5612 5615 5618
5602 5600 5597 5595 5593 5591 5589 5586 5584 5583 5581 5579 5578 5577 5576 5577 5576 5576 5577 5579 5581 5584 5586 5587 5589 5591 5592 5594 5596 5597 5598 5599 5601 5603 5605 5606 5608 5611
5597 5595 5593 5592 5590 5587 5584 5581 5579 5577 5575 5573 5572 5571 5570 5569 5569 5569 5569 5571 5574 5576 5578 5580 5582 5584 5586 5589 5590 5592 5592 5594 5595 5597 5599 5601 5603 5605
5591 5590 5589 5587 5585 5583 5581 5578 5576 5573 5570 5569 5567 5566 5566 5565 5564 5564 5562 5562 5564 5569 5570 5573 5576 5578 5581 5583 5585 5587 5588 5589 5590 5592 5594 5596 5598 5600
5586 5584 5583 5582 5579 5577 5576 5574 5572 5571 5569 5565 5563 5562 5561 5560 5558 5558 5556 5556 5558 5562 5562 5566 5569 5572 5576 5579 5581 5582 5583 5584 5585 5587 5588 5591 5593 5595
5582 5580 5577 5575 5574 5571 5570 5568 5566 5565 5564 5562 5560 5559 5558 5556 5554 5553 5552 5552 5554 5557 5558 5559 5564 5567 5573 5574 5576 5578 5580 5580 5581 5582 5584 5586 5587 5589
5578 5575 5572 5569 5568 5565 5563 5560 5559 5558 5559 5557 5555 5554 5553 5552 5550 5547 5546 5545 5547 5551 5553 5554 5559 5562 5565 5568 5571 5573 5575 5576 5577 5578 5580 5581 5582 5583
5573 5571 5568 5564 5561 5559 5555 5552 5550 5550 5549 5548 5547 5547 5547 5546 5545 5543 5542 5541 5542 5545 5549 5549 5553 5555 5558 5562 5566 5568 5569 5572 5573 5574 5576 5577 5577 5577
5567 5564 5561 5558 5555 5553 5550 5546 5544 5543 5541 5539 5539 5539 5540 5540 5540 5540 5539 5538 5538 5541 5545 5545 5547 5549 5551 5554 5558 5562 5564 5566 5568 5569 5571 5572 5573 5573
5560 5557 5554 5551 5549 5546 5544 5542 5540 5537 5534 5532 5531 5532 5532 5533 5535 5536 5536 5537 5538 5540 5542 5542 5543 5544 5545 5548 5551 5555 5558 5560 5562 5564 5566 5567 5567 5569
5554 5551 5548 5545 5542 5540 5538 5536 5534 5530 5527 5525 5525 5525 5526 5528 5529 5531 5532 5534 5535 5537 5539 5539 5540 5541 5542 5544 5547 5549 5551 5554 5557 5559 5561 5562 5563 5563
5549 5545 5542 5539 5535 5533 5531 5528 5526 5523 5520 5518 5518 5520 5521 5522 5523 5524 5525 5527 5528 5532 5535 5536 5538 5538 5539 5541 5542 5544 5547 5549 5553 5554 5556 5557 5557 5559
5542 5538 5535 5531 5527 5524 5522 5520 5518 5516 5513 5512 5511 5512 5514 5515 5516 5517 5518 5519 5520 5523 5527 5530 5532 5534 5536 5536 5537 5539 5542 5544 5547 5548 5549 5550 5552 5554
5536 5531 5526 5522 5519 5516 5513 5512 5510 5508 5505 5504 5503 5503 5505 5506 5508 5510 5510 5511 5513 5516 5519 5522 5524 5526 5527 5530 5533 5534 5536 5538 5541 5542 5543 5544 5546 5549
5530 5524 5519 5515 5512 5509 5506 5504 5502 5500 5498 5497 5497 5496 5497 5498 5500 5502 5503 5504 5506 5509 5512 5514 5516 5517 5519 5522 5526 5530 5531 5533 5535 5536 5538 5539 5541 5545
5524 5519 5514 5510 5506 5503 5500 5497 5495 5493 5492 5490 5489 5489 5490 5491 5492 5493 5495 5497 5499 5501 5504 5506 5508 5510 5512 5514 5517 5521 5526 5527 5528 5530 5532 5534 5535 5538
5519 5514 5510 5506 5501 5497 5494 5492 5489 5487 5485 5484 5483 5482 5483 5483 5484 5485 5487 5489 5491 5493 5495 5498 5502 5505 5507 5508 5509 5513 5517 5521 5524 5524 5526 5527 5528 5529
5516 5511 5506 5502 5497 5493 5490 5487 5484 5481 5479 5477 5476 5476 5476 5476 5476 5478 5480 5482 5484 5486 5488 5491 5495 5498 5499 5500 5502 5505 5508 5512 5516 5518 5520 5522 5522 5523
5512 5507 5501 5497 5492 5488 5485 5482 5479 5476 5473 5470 5469 5469 5470 5469 5470 5470 5472 5474 5476 5479 5481 5484 5487 5490 5491 5493 5495 5497 5500 5503 5506 5508 5510 5514 5517 5520